{"data":{"norad_id":68190,"intl_designator":"2026-050Z","name":"STARLINK-37071","alt_names":[],"object_type":"PAYLOAD","status":"ACTIVE","operator":null,"country":"US","launch_date":"2026-03-14","launch_site_code":"AFETR","launch_vehicle":null,"mission":null,"orbit_class":"UNKNOWN","rcs_meters":null,"size_class":null,"mass_kg":null,"dimensions":null,"purposes":["comms"],"wikipedia_slug":null,"has_3d_model":false,"image_url":null,"decayed_at":null,"tle_current":{"epoch":"2026-09-19T21:57:15.920640Z","epoch_age_seconds":102213,"freshness":"FRESH","line1":"1 68190U 26050Z   26262.91476760  .00014756  00000+0  44690-3 0  9993","line2":"2 68190  53.1578  80.7761 0001274  70.5488 289.5652 15.34406111 30477","mean_motion":15.34406111,"eccentricity":0.0001274,"inclination_deg":53.1578,"raan_deg":80.7761,"arg_perigee_deg":70.5488,"mean_anomaly_deg":289.5652,"bstar":0.0004469,"rev_number":3047,"period_min":93.847384318714,"perigee_km":461.81355635493,"apogee_km":463.55659782017,"semimajor_km":6840.8220770876,"source":"CELESTRAK","updated_at":"2026-09-20T09:00:43.803874Z"}}}